Lid_Strength_Index
2 2 2 1 1 1 0 0 0 -0 0 1 1 1 1 0 -0 -0 -1 -1 -2 -1 -1 -0 -1 -1 -0 -0 -1 -0 0 1 0 1 1 0 -0 -0 -0 -0 -0 -1 -1
3 3 2 2 1 1 1 0 0 -0 0 0 -0 -0 0 -1 -0 -1 -1 -1 -1 -1 -1 -1 -0 -0 0 0 0 1 1 1 0 2 2 4 2 1 0 -1 -0 -1 -1
4 3 3 2 2 1 1 1 0 0 -0 -1 -0 -0 -0 0 1 0 0 -0 -1 -1 -1 -1 -0 -0 0 1 1 0 1 2 0 0 2 5 5 4 1 0 0 0 0
3 3 3 3 2 1 1 0 0 0 -0 -1 -1 0 1 2 1 0 -0 -0 -1 -1 -1 -1 -1 -0 0 0 0 -0 0 1 2 1 1 1 2 5 6 2 1 -0 0
3 3 3 2 2 1 1 0 0 0 -0 -0 -1 1 1 0 -0 0 0 -0 -1 -1 -1 -0 -1 0 -0 -0 -0 -0 0 0 1 1 2 2 2 2 4 5 3 1 0
3 3 2 2 2 1 1 1 1 0 -0 -0 -0 0 1 1 1 1 1 0 0 -0 -0 -0 -0 -0 -0 -0 0 -0 -0 0 0 1 1 2 3 3 3 4 3 3 2
3 3 3 3 2 2 1 1 1 1 0 0 0 -0 0 0 0 1 1 0 1 1 -0 -1 -0 -0 -0 0 0 0 0 0 1 1 1 1 1 0 1 2 3 4 2
3 3 3 2 2 2 1 1 1 1 1 0 0 -0 -0 0 1 0 0 0 0 0 -1 -1 -1 -1 -0 -0 -0 -0 -0 -0 0 0 0 1 0 0 1 2 3 5 4
3 3 2 2 2 2 1 1 1 1 1 0 0 0 0 0 0 -0 -0 0 -1 -0 -1 -1 -1 -1 -1 -1 -0 0 1 1 1 1 0 1 1 1 0 1 1 3 6
3 3 2 2 2 2 1 1 1 1 1 0 0 0 0 -0 -0 -0 -0 -0 -1 -1 -1 -1 -1 -0 -1 -0 -0 -0 -0 0 0 0 0 0 0 0 -0 0 1 1 3
3 3 2 2 2 1 1 1 1 1 1 0 0 0 0 0 -0 0 -0 -0 -0 -0 -0 -0 -0 -0 -0 -0 -1 -0 -0 0 0 -0 0 0 -0 1 0 -0 1 1 1
3 3 2 2 2 2 1 1 1 1 1 1 0 0 0 0 0 0 -0 -1 -0 -1 -0 -0 -0 -0 -0 -0 -0 0 -0 0 1 1 0 1 1 0 -0 0 1 1 1
3 3 2 2 2 2 1 1 1 1 1 1 1 1 1 1 1 0 -0 -1 -0 -0 -0 -0 -0 0 -0 -0 -0 -0 0 0 0 0 0 1 0 1 0 0 1 1 1
3 3 3 2 2 2 1 1 1 1 1 1 1 1 1 1 0 -0 -0 -0 -1 -0 -0 -0 -0 -0 -0 -0 -0 -0 -0 -0 -0 -0 -0 0 0 1 1 1 1 1 1
4 3 3 3 2 2 2 1 1 1 1 1 1 1 0 0 -0 -0 -0 -0 -0 -0 -1 -0 -0 -0 -0 0 -0 -0 -0 0 0 -0 -0 -0 0 1 1 1 1 1 2
4 3 3 3 3 2 2 2 1 1 1 1 1 1 0 1 0 0 0 -0 0 -0 -0 0 0 0 -0 4 2 2 0 -0 0 0 0 -0 -0 0 2 2 3 1 1
4 3 3 2 2 2 2 2 1 1 1 1 1 1 1 1 1 0 0 1 0 0 0 0 0 0 -0 5 4 3 1 0 0 0 -0 0 0 -0 0 1 2 3 3
4 3 2 2 2 1 2 1 1 1 2 2 1 1 1 1 1 1 1 0 0 1 1 1 0 0 0 5 6 4 3 0 -0 -0 -0 -0 0 -0 0 0 0 0 0
3 3 2 2 1 1 1 1 2 2 2 2 1 1 1 1 1 1 1 0 0 1 1 0 1 1 0 6 6 5 3 1 0 -0 -0 -0 -0 3 2 0 1 1 0
3 3 2 1 1 1 1 2 2 2 2 2 1 1 1 1 1 1 1 0 1 1 0 0 0 2 0 7 7 6 2 1 1 0 -0 3 3 4 5 0 0 1 1
2 2 2 2 2 1 1 2 2 2 1 1 1 1 0 1 0 0 0 1 0 0 0 1 0 0 1 1 8 8 3 1 2 1 1 1 7 7 7 7 0 1 1
2 2 3 2 2 1 1 2 2 1 1 1 1 1 1 1 1 1 1 0 1 1 1 1 1 1 -0 4 7 8 8 3 1 1 1 2 8 9 9 7 6 7 5
2 2 2 3 2 1 1 2 2 1 1 1 2 1 1 1 1 1 1 2 1 2 2 2 2 1 1 0 7 8 8 7 2 1 5 6 10 10 9 9 9 9 4
2 2 2 3 3 2 1 2 2 2 1 2 2 2 2 1 1 1 1 1 1 2 2 2 2 1 1 0 0 0 1 5 3 2 1 2 4 5 4 5 7 6 4
2 2 2 2 2 2 2 1 1 1 2 2 2 2 1 1 2 1 1 1 1 1 2 1 1 2 2 2 7 7 2 2 3 3 1 1 1 1 1 1 2 4 3
3 3 3 2 2 2 1 1 1 1 1 2 2 2 2 2 2 2 2 7 7 8 8 10 5 1 7 10 10 11 12 12 12 4 3 3 2 2 2 2 1 1 2